THORAD AGENA D DEB, 4736

Orbit data source: Space-Track

THORAD AGENA D DEB, 4736 is space debris in SSO originally from a launch on Wed, 08 Apr 1970 UTC launched from the Air Force Western Test Range (AFWTR). Debris objects in space refer to the collection of defunct objects orbiting the Earth. Examples of debris include non-operational satellites, rocket bodies, and fragments generated from explosions, collisions, or faulty payload assembly.

Loading next visibility...
Identifier
4736, 1970-025CK
Orbit
SSO
Country
Flag of USUS
Related business
Manufacturer
Unknown
Mission
Spacecraft
Bus & Motor
Unknown
Mass
Unknown
Launch date (UTC)
1970-04-08 (56 years ago)
Launch vehicle
Unknown
Launch site
Air Force Western Test Range (AFWTR)
Object type
Payload
Rocket body
Debris
Shape & HBR
Unknown shape, 0.1 m
Radar Cross Section
Medium (>0.1 m² and <1 m²)

Expand to show TLE details & history
Last TLE update: 1 day ago

TLE from 1 day ago
0 THORAD AGENA D DEB
1 04736U 70025CK  26072.02119285  .00001195  00000-0  77922-3 0  9995
2 04736 100.0696  85.9705 0085589 111.2103 249.8229 14.02915684833147
Epoch: 2026-03-13T00:30Z
TLE epoch observation values (Epoch: 2026-03-13T00:30:31.062Z)
Latitude
-0.00002°
Longitude
-92.32163°
Altitude
908.47 km
Speed
7.387 km/s
True Right ascension
05h 43m 52s
True Declination
0° 00' 00"
Sunlit
Object was in daylight at epoch
Visualization orbit readout
Latitude
Unknown
Longitude
Unknown
Altitude
Unknown
Speed
Unknown
Apparent Right ascension
Unknown
Apparent Declination
Unknown
Sunlit
N/A
Visualization observer readout
Local Sidereal Time
07:24:46
Azimuth
Unknown
Elevation
Unknown
Doppler factor
Unknown
Orbital elements
Apogee altitude
943.097 km
Perigee altitude
818.837 km
Semi-major axis
7,259.104 km
Eccentricity
0.00856
Inclination
100.0696°
RAAN
85.9705°
Arg. of periapsis
111.2103°
True anomaly
248.90574°
Mean anomaly
249.8229°
Eccentric anomaly
249.36398°
Mean motion
3.50929 °/min
Orbital period
102.58 mins
BSTAR
0.00077922
Loading maneuver chart data...
Computing Atmospheric mass density...
Loading historical data...
Loading historical data...
Loading historical data...
Loading historical data...
Loading historical data...
Loading historical data...
Loading historical data...

Documentation

Showing up to 5 results
|